Regional Weather Roundup
Issued by NWS

Home | Current Version | Previous Version | Text Only | Print | Product List | Glossary On
Versions: 1 2 3 4 5 6 7 8 9 10 11 12 13 14 15 16 17 18 19 20 21 22 23 24 25 26 27 28 29 30 31 32 33 34 35 36 37 38 39 40 41 42 43 44 45 46 47 48 49 50
000
ASUS43 KTOP 292308
RWRKS

WEATHER ROUNDUP FOR KANSAS
NATIONAL WEATHER SERVICE GOODLAND KS
600 PM CDT TUE JUL 29 2014

NOTE:  "FAIR" INDICATES FEW OR NO CLOUDS BELOW 12,000 FEET WITH NO
SIGNIFICANT WEATHER AND/OR OBSTRUCTIONS TO VISIBILITY.

KSZ001>006-013>018-027>032-041>047-300000-
NORTHWEST KANSAS

CITY           SKY/WX    TMP DP  RH WIND       PRES   REMARKS
GOODLAND       CLOUDY    82  59  45 SE14      30.09F
HAYS           MOSUNNY   88  61  40 SE13      30.07F
HILL CITY      MOSUNNY   87  57  35 E12       30.07F
RUSSELL        SUNNY     86  58  38 S9        30.06F
$$

KSZ061>065-074>080-084>089-300000-
SOUTHWEST KANSAS

CITY           SKY/WX    TMP DP  RH WIND       PRES   REMARKS
DODGE CITY     MOSUNNY   79  59  50 S18       30.11F
ELKHART          N/A     81  64  56 S15         N/A
GARDEN CITY    MOSUNNY   80  62  54 S14G24    30.09F
GREAT BEND     CLOUDY    88  63  42 S12       30.05F
LIBERAL        PTSUNNY   77  64  65 SE16      30.12F
PRATT          MOSUNNY   82  57  42 SW13      30.10F
$$

KSZ066>073-081>083-090>101-300000-
SOUTHEAST KANSAS

CITY           SKY/WX    TMP DP  RH WIND       PRES   REMARKS
CHANUTE        PTSUNNY   76  58  53 NE5       30.12F
COFFEYVILLE    MOSUNNY   83  59  44 NE8       30.09F
HUTCHINSON     MOSUNNY   89  60  37 E9        30.07F
MEDICINE LODGE   N/A     83  57  41 SW15      30.08F
NEWTON         MOSUNNY   86  57  37 E7        30.12F
PARSONS        PTSUNNY   78  62  57 CALM      30.12F
WICHITA INTL   MOSUNNY   87  61  41 E14       30.06F
WICHITA JABRA  SUNNY     88  63  43 S10       30.07F
WICHITA MCCONL MOSUNNY   88  59  37 E10       30.07F
WINFIELD       MOSUNNY   89  62  40 SE9       30.07F
$$

KSZ007>012-019>026-033>040-048>060-102>105-300000-
NORTHEAST KANSAS

CITY           SKY/WX    TMP DP  RH WIND       PRES   REMARKS
CONCORDIA      MOSUNNY   80  58  46 VRB7      30.12F
EMPORIA        MOSUNNY   77  54  44 SE6       30.12F
LAWRENCE       MOSUNNY   81  59  47 NE5       30.10F
MANHATTAN      CLOUDY    82  57  42 E6        30.11F
MARYSVILLE     SUNNY     81  55  41 NW6       30.11F
OLATHE IND     MOSUNNY   83  58  42 N12       30.11F
OLATHE EXE     PTSUNNY   79  57  46 N7        30.10F
SALINA         MOSUNNY   85  57  38 E13       30.09F
TOPEKA BILLARD CLOUDY    84  56  38 CALM      30.10F
TOPEKA FORBES  CLOUDY    82  58  43 NE8       30.11S
$$


USA.gov is the U.S. government's official web portal to all federal, state and local government web resources and services.